Accueil
METAR-TAF:

METAR-TAF

Aéroports :

Odiham, Angleterre

latitude: 51-14N, longitude: 000-57W, altitude: 123 m

Observation

Le bulletin a été fait il y a 1 heure et 15 minutes, à 00:50 UTC
Vent 7 kt de est/nord-est
Température 1°C
Humidité 100%
Pression 979 hPa
Visibilité: 1900 m
brume

METAR: EGVO 110050Z AUTO 07007KT 1900 BR OVC001/// 01/01 Q0979 REDZ

Heure: 02:05 (02:05 UTC)


TAF: absent

Observations et prévisions météorologiques de plus de 4000 aéroports (messages METAR et TAF).

Les stations disponibles sont représentées par des disques jaunes et rouges sur la carte.

Passer la souris dessus pour voir le nom de la station.

Cliquer dessus pour voir les observations et prévisions météorologiques.

Pour changer de carte: cliquez sur les boutons verts avec une croix noire pour zoomer, sur le bouton vert avec un tiret pour effectuer un zoom arrière, ou sur les flèches vertes pour les cartes adjacentes.


METAR-TAF: